CSS258 ZKPY-ZBAA

Flight info

Callsign CSS258
Flight time N/A
Altitude 36000
Route JON11D JONJU L683 YOMJU A575 GOLOT/K0880S1100 A345 BIDIB A575 UKDUM W49 OSUBA OSUBA7X
Aircraft B77L/H-SDE1E2E3FGHIJ2J3J4J5M1RWXY/LB1D1

Departure

Time 2026-04-24 13:52
Airport Pyongyang Sunan International Airport (ZKPY)

Arrival

Time N/A
Airport Beijing Capital International Airport (ZBAA)
Time Latitude Longitude Altitude Speed Heading
2026-04-24 13:45 39.20137 125.67448 96 ft 0 kts 163°
2026-04-24 13:46 39.20134 125.67448 95 ft 0 kts 168°
2026-04-24 13:46 39.20131 125.67448 96 ft 1 kts 178°
2026-04-24 13:46 39.20127 125.67445 97 ft 1 kts 198°
2026-04-24 13:47 39.20125 125.67424 97 ft 4 kts 288°
2026-04-24 13:47 39.20156 125.67419 99 ft 5 kts 17°
2026-04-24 13:47 39.20192 125.67423 96 ft 6 kts 354°
2026-04-24 13:47 39.20230 125.67415 98 ft 6 kts 348°
2026-04-24 13:48 39.20270 125.67401 99 ft 9 kts 342°
2026-04-24 13:48 39.20392 125.67347 99 ft 23 kts 340°
2026-04-24 13:48 39.20543 125.67280 98 ft 23 kts 343°
2026-04-24 13:48 39.20697 125.67225 98 ft 23 kts 340°
2026-04-24 13:49 39.20850 125.67166 97 ft 23 kts 349°
2026-04-24 13:49 39.21006 125.67121 96 ft 23 kts 340°
2026-04-24 13:49 39.21155 125.67048 96 ft 23 kts 344°
2026-04-24 13:49 39.21309 125.66984 98 ft 26 kts 343°
2026-04-24 13:50 39.21563 125.66887 96 ft 47 kts 343°
2026-04-24 13:50 39.21867 125.66766 98 ft 44 kts 344°
2026-04-24 13:50 39.22049 125.66660 98 ft 13 kts 294°
2026-04-24 13:50 39.22043 125.66545 99 ft 13 kts 253°
2026-04-24 13:51 39.21992 125.66456 98 ft 13 kts 191°
2026-04-24 13:51 39.21904 125.66492 98 ft 13 kts 159°
2026-04-24 13:51 39.21770 125.66544 98 ft 34 kts 163°
2026-04-24 13:51 39.21365 125.66705 97 ft 95 kts 162°
2026-04-24 13:52 39.20521 125.67034 97 ft 156 kts 163°
2026-04-24 13:52 39.19379 125.67515 304 ft 179 kts 162°
2026-04-24 13:52 39.18162 125.67835 906 ft 173 kts 184°
2026-04-24 13:52 39.16994 125.67320 1257 ft 192 kts 220°
2026-04-24 13:53 39.16183 125.65899 1621 ft 204 kts 249°
2026-04-24 13:53 39.15957 125.64055 2066 ft 224 kts 276°
2026-04-24 13:53 39.16576 125.62101 2449 ft 249 kts 306°
2026-04-24 13:53 39.17927 125.60617 2769 ft 264 kts 328°
2026-04-24 13:54 39.19607 125.59579 2747 ft 269 kts 334°
2026-04-24 13:54 39.21327 125.58663 2760 ft 266 kts 335°
2026-04-24 13:54 39.23032 125.57756 2755 ft 265 kts 334°
2026-04-24 13:54 39.24729 125.56831 2756 ft 265 kts 334°
2026-04-24 13:55 39.26425 125.55884 2748 ft 266 kts 333°
2026-04-24 13:55 39.28116 125.54926 2752 ft 266 kts 333°
2026-04-24 13:55 39.29803 125.53956 2745 ft 265 kts 333°
2026-04-24 13:55 39.31452 125.52926 2771 ft 259 kts 322°
2026-04-24 13:56 39.32567 125.51206 3286 ft 251 kts 296°
2026-04-24 13:56 39.33438 125.49213 4007 ft 258 kts 297°
2026-04-24 13:56 39.34348 125.47203 4896 ft 260 kts 298°
2026-04-24 13:56 39.35271 125.45191 5771 ft 261 kts 298°
2026-04-24 13:57 39.36190 125.43197 6622 ft 263 kts 298°
2026-04-24 13:57 39.37131 125.41167 7477 ft 263 kts 298°
2026-04-24 13:57 39.38076 125.39133 8290 ft 265 kts 299°
2026-04-24 13:57 39.39035 125.37074 9065 ft 269 kts 300°
2026-04-24 13:58 39.40009 125.34988 9862 ft 272 kts 300°
2026-04-24 13:58 39.40996 125.32877 10521 ft 279 kts 300°
2026-04-24 13:58 39.42040 125.30644 10774 ft 303 kts 300°
2026-04-24 13:58 39.43176 125.28211 10980 ft 329 kts 300°
2026-04-24 13:59 39.44406 125.25581 11249 ft 351 kts 300°
2026-04-24 13:59 39.45691 125.22835 11903 ft 362 kts 300°